User: anonymous   Login
Location: Unspecified
(0.0000°N, 0.0000°E)
Time: 03:37:00
(UTC+00:00)
Language:

PAYLOAD H - Orbit

View from above orbital plane
View from above orbital plane
View from above satellite
View from above satellite

Ground track
Ground track

The orbit data is extracted from the following two-line orbital elements,

1 27847U 03031H   17112.95202047 +.00000080 +00000-0 +55996-4 0  9992
2 27847 098.6845 121.5477 0010343 118.3596 241.8626 14.22048098716563
Epoch (UTC): 22 April 2017 22:50:54
Eccentricity: 0.0010343
inclination: 98.6845°
perigee height: 811 km
apogee height: 826 km
right ascension of ascending node: 121.5477°
argument of perigee: 118.3596°
revolutions per day: 14.22048098
mean anomaly at epoch: 241.8626°
orbit number at epoch: 71656

The dashed part of the orbit path shows where the satellite is in the earth's shadow,  

DLR